127P/Holt-Olmstead (2003)

Japanese version
Home page
Updated on December 6, 2003

---------------------------------------------------------------------

* Profile

* Orbital Elements

Epoch 2003 June 10.0 TT = JDT 2452800.5  
T 2003 June 12.46548 TT                                 Muraoka 
q   2.1590934            (2000.0)            P               Q
n   0.15549971     Peri.    6.49760     +0.93749775     -0.34274793
a   3.4249139      Node    14.00805     +0.30703925     +0.73331372
e   0.3695919      Incl.   14.39613     +0.16378297     +0.58717532
P   6.34
From 49 observations 1990-1996, mean residual 0".78.

* Finding Charts

* Magnitudes Graph

        m1 = 13.0 + 5 log d + 15.0 log r

---------------------------------------------------------------------

The orbital elements are calculated by Kenji Muraoka.
The charts are made with StellaNavigator Ver.2.0 for Windows (AstroArts / ASCII).
The magnitudes graphs are made with Comet for Windows.

---------------------------------------------------------------------

Copyright(C) Seiichi Yoshida (comet@aerith.net). All rights reserved.